South Lake Tahoe, CA

3:03 AM PST on January 19, 2017 (GMT -0800)
Lake Tahoe

Weather History for KTVL - March, 2013

Change the Weather History Date:

Saturday, March 30, 2013

  Actual Average Record
Temperature  
Mean Temperature 47 °F 38 °F  
Max Temperature 62 °F 51 °F 71 °F (2015)
Min Temperature 31 °F 24 °F 5 °F (1981)
Degree Days  
Heating Degree Days 18 28  
Month to date heating degree days 739 889  
Since 1 July heating degree days 5757 6126  
Cooling Degree Days 0 0  
Month to date cooling degree days 0 0  
Year to date cooling degree days 0 0  
Moisture  
Dew Point 33 °F    
Average Humidity 63    
Maximum Humidity 92    
Minimum Humidity 33    
Precipitation  
Precipitation T in - 1.49 in (1940)
Month to date precipitation 1.15  
Year to date precipitation 2.05  
Sea Level Pressure  
Sea Level Pressure 30.09 in    
Wind  
Wind Speed 2 mph (SSW)    
Max Wind Speed 13 mph    
Max Gust Speed 17 mph    
Visibility 10 miles    
Events      
T = Trace of Precipitation, MM = Missing Value Source: NWS Daily Summary

Daily Weather History Graph

Daily Weather History Graph

Search for Another Location

Airport or City:

Trip Planner

Search our weather history database for the weather conditions in past years. The results will help you decide how hot, cold, wet, or windy it might be!

Date:

Astronomy

Mar. 30, 2013 Rise Set
Actual Time 6:47 AM PDT 7:22 PM PDT
Civil Twilight 6:20 AM PDT 7:48 PM PDT
Nautical Twilight 5:48 AM PDT 8:20 PM PDT
Astronomical Twilight 5:16 AM PDT 8:53 PM PDT
Moon 11:31 PM PDT (3/30) 8:48 AM PDT (3/30)
Length of Visible Light 13h 28m
Length of Day
12h 34m
Waning Gibbous, 85% of the Moon is Illuminated
Mar 30
Waning Gibbous
Apr 2
Last Quarter
Apr 10
New
Apr 18
First Quarter
Apr 25
Full

Hourly Weather History & Observations

Time (PDT) Temp. Windchill Dew Point Humidity Pressure Visibility Wind Dir Wind Speed Gust Speed Precip Events Conditions
12:53 AM 35.1 °F - 30.0 °F 82% 30.18 in 10.0 mi Calm Calm - N/A   Mostly Cloudy
1:53 AM 34.0 °F - 30.0 °F 85% 30.17 in 10.0 mi Calm Calm - N/A   Clear
2:53 AM 33.1 °F - 30.0 °F 89% 30.15 in 10.0 mi Calm Calm - N/A   Clear
3:53 AM 32.0 °F - 28.0 °F 85% 30.14 in 10.0 mi Calm Calm - N/A   Clear
4:53 AM 30.9 °F - 27.0 °F 85% 30.14 in 10.0 mi Calm Calm - N/A   Clear
5:53 AM 30.9 °F 27.5 °F 28.0 °F 89% 30.14 in 10.0 mi SW 3.5 mph - N/A   Clear
6:53 AM 30.9 °F - 27.0 °F 85% 30.16 in 10.0 mi Calm Calm - N/A   Clear
7:53 AM 34.0 °F 31.0 °F 28.9 °F 82% 30.17 in 10.0 mi SSW 3.5 mph - N/A   Clear
8:53 AM 42.1 °F 40.2 °F 34.0 °F 73% 30.15 in 10.0 mi South 3.5 mph - N/A   Clear
9:53 AM 51.1 °F - 36.0 °F 56% 30.12 in 10.0 mi North 4.6 mph - N/A   Scattered Clouds
10:53 AM 55.9 °F - 35.1 °F 45% 30.11 in 10.0 mi NNE 6.9 mph - N/A   Clear
11:53 AM 60.1 °F - 33.1 °F 36% 30.09 in 10.0 mi Variable 4.6 mph - N/A   Partly Cloudy
12:53 PM 60.1 °F - 32.0 °F 35% 30.08 in 10.0 mi Calm Calm - N/A   Mostly Cloudy
1:53 PM 57.9 °F - 30.0 °F 35% 30.08 in 10.0 mi Calm Calm - N/A   Mostly Cloudy
2:53 PM 59.0 °F - 30.0 °F 33% 30.06 in 10.0 mi South 6.9 mph - N/A   Mostly Cloudy
3:53 PM 55.0 °F - 36.0 °F 49% 30.06 in 10.0 mi South 4.6 mph - 0.00 in   Mostly Cloudy
4:53 PM 54.0 °F - 36.0 °F 51% 30.07 in 10.0 mi SSW 9.2 mph - N/A   Overcast
5:53 PM 51.1 °F - 36.0 °F 56% 30.06 in 10.0 mi South 6.9 mph - N/A   Overcast
6:53 PM 50.0 °F - 37.0 °F 61% 30.06 in 10.0 mi Calm Calm - 0.00 in   Overcast
7:53 PM 46.0 °F - 37.0 °F 71% 30.05 in 10.0 mi Calm Calm - N/A   Mostly Cloudy
8:53 PM 44.1 °F - 36.0 °F 73% 30.04 in 10.0 mi Calm Calm - N/A   Scattered Clouds
9:53 PM 42.1 °F 40.2 °F 35.1 °F 76% 30.00 in 10.0 mi SSW 3.5 mph - N/A   Mostly Cloudy
10:53 PM 42.1 °F - 36.0 °F 79% 29.98 in 10.0 mi Calm Calm - 0.00 in   Overcast
11:53 PM 42.1 °F - 36.0 °F 79% 29.96 in 10.0 mi Calm Calm - N/A   Overcast